User: anonymous   Login
Location: Caltech
(34.1382°N, 118.1253°W)
Time: 16:19:42
(UTC-07:00)
Language:

RESURS DK-1 - Orbit

View from above orbital plane
View from above orbital plane
View from above satellite
View from above satellite

Ground track
Ground track

The orbit data is extracted from the following two-line orbital elements,

1 29228U 06021A   17141.87136498 +.00000106 +00000-0 +15446-4 0  9993
2 29228 069.9340 165.0319 0004535 342.2453 017.8548 15.02148662604144
Epoch (UTC): 21 May 2017 20:54:45
Eccentricity: 0.0004535
inclination: 69.9340°
perigee height: 557 km
apogee height: 563 km
right ascension of ascending node: 165.0319°
argument of perigee: 342.2453°
revolutions per day: 15.02148662
mean anomaly at epoch: 17.8548°
orbit number at epoch: 60414

The dashed part of the orbit path shows where the satellite is in the earth's shadow,  

DLR